Zurück zum Katalog

STARLINK-11566

AktivKommunikationVLEO
NORAD 62914·PAYLOAD·🇺🇸 United States

Gestartet Feb 8, 2025 von Cape Canaveral Space Force Station

Loading…

Nächste Überflüge (nächste 24 Stunden)

TLE

AktuellSource: CelesTrak SupGP

Epoche: Sep 14, 2026, 20:59 UTC

1 62914C 25027H   26257.87479167 -.00045573  00000+0 -35408-3 0  2574
2 62914  43.0006 287.5732 0001572 253.7552  89.2005 15.70853248    13

Verfolge STARLINK-11566 in Echtzeit mit AllMySat

Download on the App Store